period_start,C,m1,H,J0,J1,J2,J3,J4,J5,JA,JB,JC,JD,JJ,JK,JN,#
2013-08-27 00:00:49,0.02,0.11,0.00,22.95,28.12,30.88,5.93,29.71,1009.78,2047.98,3467.00,3318.89,3602.85,349.34,321.23,6.62,0000 0000 0000 0000 000000
2013-08-27 00:01:49,0.00,0.11,0.00,22.97,28.12,30.89,6.17,29.71,1009.78,2047.99,3467.00,3318.77,3602.71,350.58,322.35,6.63,0000 0000 0000 0000 000000
2013-08-27 00:02:49,0.05,0.11,0.00,22.93,28.12,30.89,5.94,29.67,1009.78,2047.99,3467.00,3318.64,3602.54,349.64,321.53,6.63,0000 0000 0000 0000 000000
2013-08-27 00:03:49,0.05,0.11,0.00,22.93,28.12,30.89,6.03,29.63,1009.78,2047.99,3467.00,3318.51,3602.38,350.05,321.91,6.64,0000 0000 0000 0000 000000
2013-08-27 00:04:50,0.04,0.11,0.00,22.92,28.12,30.86,5.86,29.71,1009.78,2047.99,3467.00,3318.31,3602.25,349.75,321.60,6.65,0000 0000 0000 0000 000000
2013-08-27 00:05:50,0.04,0.11,0.00,22.92,28.12,30.84,6.07,29.75,1009.78,2047.99,3467.00,3318.22,3602.16,350.63,322.45,6.65,0000 0000 0000 0000 000000
2013-08-27 00:06:50,0.04,0.11,0.00,22.93,28.12,30.81,6.13,29.71,1009.78,2047.99,3467.00,3318.17,3602.09,350.90,322.69,6.66,0000 0000 0000 0000 000000
2013-08-27 00:07:50,0.01,0.11,0.00,22.93,28.12,30.81,5.92,29.58,1009.78,2047.99,3467.00,3318.17,3602.09,349.82,321.70,6.66,0000 0000 0000 0000 000000
2013-08-27 00:08:50,0.00,0.11,0.00,22.91,28.12,30.80,5.96,29.46,1009.78,2047.99,3466.97,3318.12,3602.05,350.03,321.66,6.67,0000 0000 0000 0000 000000
2013-08-27 00:09:50,0.02,0.11,0.00,22.90,28.12,30.77,6.06,29.67,1009.78,2047.99,3466.97,3318.09,3602.04,350.51,322.54,6.68,0000 0000 0000 0000 000000
2013-08-27 00:10:51,0.00,0.11,0.00,22.93,28.12,30.81,5.97,29.54,1009.78,2047.99,3466.99,3318.07,3602.04,349.87,321.81,6.68,0000 0000 0000 0000 000000
2013-08-27 00:11:51,0.00,0.11,0.00,22.94,28.12,30.81,5.93,29.79,1009.78,2047.99,3466.98,3318.06,3602.02,349.84,321.71,6.69,0000 0000 0000 0000 000000
2013-08-27 00:12:51,0.00,0.11,0.00,22.92,28.12,30.78,5.94,29.67,1009.78,2047.99,3466.95,3318.06,3602.02,350.89,322.26,6.69,0000 0000 0000 0000 000000
2013-08-27 00:13:51,0.00,0.11,0.00,22.91,28.12,30.78,5.98,29.88,1009.78,2047.99,3466.96,3318.05,3602.01,348.88,321.20,6.70,0000 0000 0000 0000 000000
2013-08-27 00:14:51,0.00,0.11,0.00,22.92,28.12,30.77,6.01,29.63,1009.78,2047.99,3466.95,3318.04,3602.01,350.14,322.05,6.71,0000 0000 0000 0000 000000
2013-08-27 00:15:51,0.00,0.11,0.00,22.93,28.12,30.77,5.85,29.58,1009.78,2047.99,3466.83,3318.02,3602.00,349.51,321.41,6.71,0000 0000 0000 0000 000000
2013-08-27 00:16:51,0.01,0.11,0.00,22.95,28.12,30.83,6.22,29.92,1009.79,2047.99,3466.67,3318.01,3602.00,350.07,321.91,6.72,0000 0000 0000 0000 000000
2013-08-27 00:17:52,0.03,0.11,0.00,22.97,28.12,30.78,6.13,29.79,1009.80,2047.99,3466.65,3318.00,3602.00,350.21,321.74,6.72,0000 0000 0000 0000 000000
2013-08-27 00:18:52,0.00,0.11,0.00,23.01,28.12,30.77,6.23,29.88,1009.78,2047.99,3466.63,3318.00,3602.00,351.00,322.69,6.73,0000 0000 0000 0000 000000
2013-08-27 00:19:52,0.00,0.11,0.00,23.02,28.12,30.78,5.90,29.75,1009.78,2047.99,3466.36,3318.01,3602.00,349.95,321.75,6.73,0000 0000 0000 0000 000000
2013-08-27 00:20:52,0.04,0.11,0.00,23.00,28.12,30.76,5.97,29.75,1009.78,2047.99,3466.19,3318.01,3601.99,350.22,321.97,6.74,0000 0000 0000 0000 000000
2013-08-27 00:21:52,0.02,0.11,0.00,23.00,28.12,30.71,6.18,29.92,1009.79,2047.99,3466.09,3318.00,3601.99,350.72,322.65,6.75,0000 0000 0000 0000 000000
2013-08-27 00:22:52,0.00,0.11,0.00,23.00,28.12,30.75,5.88,29.71,1009.78,2047.99,3466.05,3318.00,3601.99,349.20,321.06,6.75,0000 0000 0000 0000 000000
2013-08-27 00:23:52,0.00,0.11,0.00,23.01,28.12,30.76,6.04,29.54,1009.78,2047.99,3466.02,3318.00,3601.99,350.66,322.70,6.76,0000 0000 0000 0000 000000
2013-08-27 00:24:53,0.00,0.11,0.00,23.00,28.12,30.75,5.92,29.67,1009.78,2047.99,3466.04,3318.00,3601.98,349.85,322.19,6.76,0000 0000 0000 0000 000000
2013-08-27 00:25:53,0.00,0.11,0.00,22.98,28.12,30.73,5.88,29.83,1009.78,2047.98,3466.02,3318.00,3601.95,349.53,321.38,6.77,0000 0000 0000 0000 000000
2013-08-27 00:26:53,0.00,0.11,0.00,22.99,28.12,30.74,6.02,29.63,1009.80,2047.99,3466.00,3317.99,3601.95,350.25,322.03,6.78,0000 0000 0000 0000 000000
2013-08-27 00:27:53,0.01,0.11,0.00,22.99,28.12,30.73,5.82,29.58,1009.79,2047.99,3466.00,3317.99,3601.93,349.28,321.14,6.78,0000 0000 0000 0000 000000
2013-08-27 00:28:53,0.00,0.11,0.00,22.99,28.12,30.78,5.92,29.67,1009.78,2047.98,3466.00,3317.99,3601.88,349.79,321.60,6.79,0000 0000 0000 0000 000000
2013-08-27 00:29:53,0.00,0.11,0.00,22.96,28.12,30.75,5.96,29.54,1009.78,2047.99,3466.00,3317.99,3601.82,350.05,321.88,6.79,0000 0000 0000 0000 000000
2013-08-27 00:30:53,0.01,0.11,0.00,22.94,28.12,30.77,6.02,29.75,1009.78,2047.99,3466.00,3317.99,3601.73,350.30,322.13,6.80,0000 0000 0000 0000 000000
2013-08-27 00:31:54,0.00,0.11,0.00,22.93,28.12,30.79,6.06,29.50,1009.79,2047.99,3466.00,3317.99,3601.74,350.18,322.03,6.80,0000 0000 0000 0000 000000
2013-08-27 00:32:54,0.00,0.11,0.00,22.93,28.12,30.76,5.92,29.33,1009.78,2047.99,3466.00,3317.99,3601.77,350.07,322.03,6.81,0000 0000 0000 0000 000000
2013-08-27 00:33:54,0.00,0.11,0.00,22.95,28.12,30.78,5.84,29.33,1009.78,2047.99,3466.00,3317.99,3601.59,349.56,321.48,6.82,0000 0000 0000 0000 000000
2013-08-27 00:34:54,0.02,0.11,0.00,22.93,28.12,30.76,5.72,29.46,1009.79,2047.98,3466.00,3317.98,3601.40,348.78,320.42,6.82,0000 0000 0000 0000 000000
2013-08-27 00:35:55,0.00,0.11,0.00,22.95,28.12,30.78,5.98,29.63,1009.78,2047.98,3466.00,3317.98,3601.29,349.81,321.56,6.83,0000 0000 0000 0000 000000
2013-08-27 00:36:55,0.02,0.11,0.00,22.97,28.12,30.78,6.07,29.67,1009.79,2047.98,3465.97,3317.97,3601.16,351.00,322.75,6.83,0000 0000 0000 0000 000000
2013-08-27 00:37:55,0.01,0.12,0.00,22.99,28.12,30.78,5.83,29.54,1009.78,2047.99,3465.95,3317.97,3601.17,349.47,321.40,6.84,0000 0000 0000 0000 000000
2013-08-27 00:38:55,0.00,0.12,0.00,23.00,28.12,30.82,6.08,29.71,1009.79,2047.99,3465.93,3317.98,3601.13,350.72,322.45,6.85,0000 0000 0000 0000 000000
2013-08-27 00:39:55,0.00,0.12,0.00,23.00,28.12,30.79,6.05,29.75,1009.78,2047.99,3465.85,3317.97,3601.07,350.67,322.60,6.85,0000 0000 0000 0000 000000
2013-08-27 00:40:55,0.02,0.12,0.00,23.00,28.12,30.78,6.02,29.92,1009.78,2047.99,3465.56,3317.74,3601.04,349.67,321.49,6.86,0000 0000 0000 0000 000000
2013-08-27 00:41:55,0.12,0.12,0.00,22.97,28.12,30.83,5.88,30.00,1009.79,2047.99,3465.29,3317.56,3601.01,349.96,321.80,6.86,0000 0000 0000 0000 000000
2013-08-27 00:42:55,0.05,0.12,0.00,22.95,28.12,30.83,5.98,30.04,1009.78,2047.99,3465.14,3317.45,3601.00,350.40,322.21,6.87,0000 0000 0000 0000 000000
2013-08-27 00:43:56,0.03,0.12,0.00,22.94,28.12,30.80,5.98,30.08,1009.78,2047.98,3465.11,3317.30,3601.00,350.74,322.54,6.87,0000 0000 0000 0000 000000
2013-08-27 00:44:56,0.03,0.12,0.00,22.95,28.12,30.82,5.97,29.63,1009.79,2047.98,3465.12,3317.28,3601.00,349.29,321.19,6.88,0000 0000 0000 0000 000000
2013-08-27 00:45:56,0.00,0.12,0.00,22.94,28.12,30.82,5.83,29.38,1009.80,2047.97,3465.07,3317.27,3601.00,349.11,321.04,6.89,0000 0000 0000 0000 000000
2013-08-27 00:46:56,0.00,0.12,0.00,22.93,28.12,30.79,6.02,29.50,1009.78,2047.96,3465.05,3317.20,3601.00,350.88,322.67,6.89,0000 0000 0000 0000 000000
2013-08-27 00:47:57,0.01,0.12,0.00,22.94,28.12,30.85,5.88,29.46,1009.78,2047.96,3465.02,3317.17,3601.00,349.33,321.24,6.90,0000 0000 0000 0000 000000
2013-08-27 00:48:57,0.01,0.12,0.00,22.93,28.12,30.87,5.80,29.38,1009.79,2047.96,3465.00,3317.07,3600.99,349.28,321.14,6.90,0000 0000 0000 0000 000000
2013-08-27 00:49:57,0.02,0.12,0.00,22.94,28.12,30.87,6.02,29.58,1009.78,2047.98,3465.00,3317.04,3600.99,349.86,321.91,6.91,0000 0000 0000 0000 000000
2013-08-27 00:50:57,0.01,0.12,0.00,22.92,28.12,30.82,6.06,29.79,1009.78,2047.99,3465.00,3317.07,3600.99,349.43,320.89,6.92,0000 0000 0000 0000 000000
2013-08-27 00:51:58,0.00,0.12,0.00,22.90,28.12,30.83,5.80,29.46,1009.78,2047.99,3465.00,3317.07,3600.99,349.23,322.02,6.92,0000 0000 0000 0000 000000
2013-08-27 00:52:58,0.00,0.12,0.00,22.92,28.12,30.85,6.00,29.92,1009.78,2047.99,3465.00,3317.03,3600.99,350.54,322.37,6.93,0000 0000 0000 0000 000000
2013-08-27 00:53:58,0.00,0.12,0.00,22.93,28.12,30.81,5.77,29.63,1009.78,2047.99,3465.00,3317.02,3600.98,349.48,321.39,6.93,0000 0000 0000 0000 000000
2013-08-27 00:54:58,0.00,0.12,0.00,22.91,28.12,30.86,5.94,29.50,1009.78,2047.99,3465.00,3317.05,3600.97,349.38,321.31,6.94,0000 0000 0000 0000 000000
2013-08-27 00:55:59,-0.00,0.12,0.00,22.89,28.12,30.83,6.03,29.83,1009.78,2047.98,3465.00,3317.04,3600.98,351.06,322.50,6.94,0000 0000 0000 0000 000000
2013-08-27 00:56:59,-0.01,0.12,0.00,22.90,28.12,30.84,6.01,29.58,1009.78,2047.99,3465.00,3317.01,3600.96,350.20,322.08,6.95,0000 0000 0000 0000 000000
2013-08-27 00:57:59,0.01,0.12,0.00,22.91,28.12,30.77,6.01,29.75,1009.78,2047.99,3465.00,3317.00,3600.96,350.13,322.01,6.96,0000 0000 0000 0000 000000
2013-08-27 00:58:59,0.00,0.12,0.00,22.92,28.12,30.77,5.94,29.46,1009.78,2047.99,3464.98,3317.00,3600.93,349.61,321.01,6.96,0000 0000 0000 0000 000000
2013-08-27 00:59:59,0.00,0.12,0.00,22.92,28.12,30.81,5.96,29.63,1009.78,2047.99,3464.95,3317.00,3600.92,349.79,321.34,6.97,0000 0000 0000 0000 000000
2013-08-27 01:01:00,0.00,0.12,0.00,22.94,28.12,30.87,5.83,29.33,1009.78,2047.99,3464.87,3317.00,3600.85,350.26,322.08,6.97,0000 0000 0000 0000 000000
2013-08-27 01:02:00,0.02,0.12,0.00,22.94,28.12,30.81,5.98,29.58,1009.78,2047.99,3464.75,3317.00,3600.68,349.35,321.26,6.98,0000 0000 0000 0000 000000
2013-08-27 01:03:00,0.03,0.12,0.00,22.93,28.12,30.78,5.96,29.46,1009.78,2047.99,3464.72,3317.00,3600.67,350.00,321.87,6.99,0000 0000 0000 0000 000000
2013-08-27 01:04:00,0.01,0.12,0.00,22.91,28.12,30.81,5.93,29.42,1009.78,2047.99,3464.58,3317.00,3600.68,349.82,321.90,6.99,0000 0000 0000 0000 000000
2013-08-27 01:05:00,0.01,0.12,0.00,22.90,28.12,30.81,6.05,29.50,1009.78,2047.99,3464.38,3317.00,3600.61,350.25,322.29,7.00,0000 0000 0000 0000 000000
2013-08-27 01:06:01,0.02,0.12,0.00,22.88,28.12,30.82,6.11,29.42,1009.78,2047.99,3464.33,3317.00,3600.66,350.34,321.82,7.00,0000 0000 0000 0000 000000
2013-08-27 01:07:01,0.00,0.12,0.00,22.86,28.12,30.80,5.90,29.46,1009.78,2047.98,3464.34,3317.00,3600.68,349.37,321.71,7.01,0000 0000 0000 0000 000000
2013-08-27 01:08:01,0.01,0.12,0.00,22.87,28.12,30.81,6.08,29.54,1009.78,2047.99,3464.25,3317.00,3600.50,350.29,322.52,7.01,0000 0000 0000 0000 000000
2013-08-27 01:09:01,0.03,0.12,0.00,22.87,28.12,30.83,6.08,29.42,1009.78,2047.99,3464.14,3317.00,3600.37,349.67,321.63,7.02,0000 0000 0000 0000 000000
2013-08-27 01:10:02,0.02,0.12,0.00,22.89,28.12,30.84,6.04,29.33,1009.78,2047.99,3464.08,3317.00,3600.23,349.39,321.34,7.03,0000 0000 0000 0000 000000
2013-08-27 01:11:02,0.03,0.12,0.00,22.90,28.12,30.86,6.09,29.50,1009.78,2047.99,3464.03,3317.00,3600.11,350.16,321.71,7.03,0000 0000 0000 0000 000000
2013-08-27 01:12:02,0.02,0.12,0.00,22.89,28.12,30.90,5.86,29.33,1009.79,2047.99,3464.01,3316.98,3600.04,349.40,321.03,7.04,0000 0000 0000 0000 000000
2013-08-27 01:13:02,0.01,0.12,0.00,22.89,28.13,30.86,5.94,29.50,1009.78,2047.99,3464.00,3316.98,3600.01,349.85,322.24,7.04,0000 0000 0000 0000 000000
2013-08-27 01:14:02,0.00,0.12,0.00,22.90,28.12,30.85,6.06,29.54,1009.78,2047.98,3464.00,3316.98,3600.00,350.08,322.12,7.05,0000 0000 0000 0000 000000
2013-08-27 01:15:02,0.00,0.12,0.00,22.89,28.13,30.84,6.18,29.75,1009.78,2047.98,3464.00,3316.95,3600.00,350.63,322.31,7.06,0000 0000 0000 0000 000000
2013-08-27 01:16:03,0.01,0.12,0.00,22.89,28.12,30.85,5.82,29.71,1009.79,2047.98,3464.00,3316.94,3600.00,349.51,321.46,7.06,0000 0000 0000 0000 000000
2013-08-27 01:17:03,0.00,0.12,0.00,22.91,28.12,30.87,5.97,29.58,1009.78,2047.99,3463.99,3316.88,3600.00,350.38,322.23,7.07,0000 0000 0000 0000 000000
2013-08-27 01:18:03,0.01,0.12,0.00,22.90,28.12,30.88,5.93,29.33,1009.78,2047.99,3463.99,3316.84,3600.00,349.69,321.62,7.07,0000 0000 0000 0000 000000
2013-08-27 01:19:03,0.01,0.12,0.00,22.93,28.13,30.85,6.16,29.67,1009.78,2047.99,3463.99,3316.84,3600.00,350.42,321.83,7.08,0000 0000 0000 0000 000000
2013-08-27 01:20:04,0.00,0.12,0.00,22.93,28.13,30.83,5.95,29.71,1009.78,2047.99,3463.99,3316.78,3600.00,350.14,321.88,7.09,0000 0000 0000 0000 000000
2013-08-27 01:21:04,0.01,0.12,0.00,22.92,28.13,30.84,5.82,29.92,1009.79,2047.98,3463.98,3316.65,3600.00,348.43,320.43,7.09,0000 0000 0000 0000 000000
2013-08-27 01:22:04,0.02,0.12,0.00,22.91,28.13,30.81,5.84,29.63,1009.79,2047.99,3463.95,3316.60,3600.00,348.80,320.79,7.10,0000 0000 0000 0000 000000
2013-08-27 01:23:04,0.00,0.12,0.00,22.91,28.13,30.85,6.03,29.63,1009.78,2047.99,3463.95,3316.50,3600.00,350.06,321.94,7.10,0000 0000 0000 0000 000000
2013-08-27 01:24:05,0.02,0.12,0.00,22.91,28.13,30.86,5.95,29.58,1009.79,2047.97,3463.87,3316.30,3599.99,350.11,321.99,7.11,0000 0000 0000 0000 000000
2013-08-27 01:25:05,0.04,0.12,0.00,22.90,28.13,30.84,5.84,29.33,1009.79,2047.99,3463.85,3316.22,3599.97,349.88,321.79,7.11,0000 0000 0000 0000 000000
2013-08-27 01:26:05,0.03,0.12,0.00,22.91,28.13,30.86,6.07,29.58,1009.78,2047.98,3463.73,3316.16,3599.93,350.11,321.99,7.12,0000 0000 0000 0000 000000
2013-08-27 01:27:06,0.02,0.12,0.00,22.90,28.14,30.81,5.94,29.38,1009.79,2047.98,3463.56,3316.09,3599.90,349.69,321.76,7.13,0000 0000 0000 0000 000000
2013-08-27 01:28:06,0.03,0.12,0.00,22.89,28.13,30.80,5.88,29.42,1009.79,2047.97,3463.29,3316.06,3599.76,349.32,321.28,7.13,0000 0000 0000 0000 000000
2013-08-27 01:29:06,0.05,0.12,0.00,22.89,28.13,30.84,5.77,29.42,1009.78,2047.97,3463.33,3316.07,3599.78,348.91,320.63,7.14,0000 0000 0000 0000 000000
2013-08-27 01:30:06,-0.00,0.12,0.00,22.90,28.14,30.84,5.93,29.29,1009.79,2047.98,3463.46,3316.08,3599.78,350.17,321.61,7.14,0000 0000 0000 0000 000000
2013-08-27 01:31:07,-0.01,0.12,0.00,22.91,28.14,30.87,6.03,29.38,1009.78,2047.97,3463.33,3316.04,3599.69,349.80,321.76,7.15,0000 0000 0000 0000 000000
2013-08-27 01:32:07,0.02,0.12,0.00,22.90,28.14,30.85,5.95,29.54,1009.80,2047.97,3463.19,3316.06,3599.66,350.30,321.24,7.16,0000 0000 0000 0000 000000
2013-08-27 01:33:07,0.01,0.12,0.00,22.88,28.14,30.86,6.12,30.00,1009.79,2047.97,3463.10,3316.05,3599.52,351.09,322.93,7.16,0000 0000 0000 0000 000000
2013-08-27 01:34:07,0.03,0.12,0.00,22.88,28.14,30.84,6.15,29.88,1009.79,2047.96,3463.09,3316.04,3599.55,351.29,323.16,7.17,0000 0000 0000 0000 000000
2013-08-27 01:35:08,0.00,0.12,0.00,22.91,28.14,30.84,5.93,29.67,1009.80,2047.97,3463.11,3316.04,3599.55,350.39,321.89,7.17,0000 0000 0000 0000 000000
2013-08-27 01:36:08,0.00,0.12,0.00,22.93,28.14,30.83,6.04,29.67,1009.81,2047.96,3463.07,3316.03,3599.48,350.77,322.82,7.18,0000 0000 0000 0000 000000
2013-08-27 01:37:08,0.01,0.12,0.00,22.94,28.14,30.81,5.94,29.42,1009.81,2047.98,3463.04,3316.02,3599.32,350.75,322.56,7.18,0000 0000 0000 0000 000000
2013-08-27 01:38:08,0.04,0.12,0.00,22.93,28.15,30.80,5.92,29.42,1009.81,2047.99,3463.01,3316.01,3599.21,349.37,321.29,7.19,0000 0000 0000 0000 000000
2013-08-27 01:39:09,0.02,0.12,0.00,22.92,28.15,30.83,6.04,29.33,1009.80,2047.99,3463.00,3316.00,3599.15,350.44,322.29,7.20,0000 0000 0000 0000 000000
2013-08-27 01:40:09,0.01,0.12,0.00,22.90,28.15,30.85,5.99,29.54,1009.80,2047.99,3463.00,3316.00,3599.09,349.84,321.39,7.20,0000 0000 0000 0000 000000
2013-08-27 01:41:09,0.00,0.12,0.00,22.89,28.15,30.81,5.86,30.00,1009.80,2047.99,3463.00,3316.00,3599.06,350.07,321.96,7.21,0000 0000 0000 0000 000000
2013-08-27 01:42:09,0.00,0.12,0.00,22.90,28.15,30.86,5.87,29.96,1009.81,2047.98,3463.00,3316.00,3599.04,349.30,321.26,7.21,0000 0000 0000 0000 000000
2013-08-27 01:43:10,0.00,0.12,0.00,22.91,28.15,30.88,6.02,30.17,1009.81,2047.97,3462.99,3316.00,3599.02,350.77,322.61,7.22,0000 0000 0000 0000 000000
2013-08-27 01:44:10,0.00,0.12,0.00,22.90,28.15,30.84,5.96,29.29,1009.81,2047.95,3462.99,3316.00,3599.00,350.97,322.79,7.23,0000 0000 0000 0000 000000
2013-08-27 01:45:10,0.00,0.12,0.00,22.90,28.15,30.86,6.12,29.54,1009.80,2047.95,3462.99,3316.00,3599.00,350.64,321.91,7.23,0000 0000 0000 0000 000000
2013-08-27 01:46:10,0.00,0.12,0.00,22.90,28.15,30.87,5.88,29.50,1009.80,2047.97,3462.98,3316.00,3599.00,350.07,321.85,7.24,0000 0000 0000 0000 000000
2013-08-27 01:47:11,0.00,0.12,0.00,22.91,28.15,30.83,5.92,29.46,1009.81,2047.98,3462.98,3316.00,3599.00,348.84,320.82,7.24,0000 0000 0000 0000 000000
2013-08-27 01:48:11,0.01,0.12,0.00,22.91,28.15,30.81,5.84,29.63,1009.79,2047.98,3462.79,3315.99,3599.00,349.98,321.87,7.25,0000 0000 0000 0000 000000
2013-08-27 01:49:11,0.01,0.12,0.00,22.92,28.15,30.85,6.03,29.58,1009.78,2047.98,3462.55,3315.97,3599.00,350.51,322.14,7.26,0000 0000 0000 0000 000000
2013-08-27 01:50:11,0.05,0.12,0.00,22.92,28.15,30.83,6.08,29.54,1009.79,2047.99,3462.22,3315.79,3598.91,350.34,322.19,7.26,0000 0000 0000 0000 000000
2013-08-27 01:51:12,0.10,0.12,0.00,22.91,28.15,30.85,5.94,29.50,1009.81,2047.98,3462.08,3315.33,3598.54,348.95,321.68,7.27,0000 0000 0000 0000 000000
2013-08-27 01:52:12,0.15,0.12,0.00,22.94,28.15,30.86,5.92,29.54,1009.81,2047.99,3462.02,3315.14,3598.28,350.15,321.87,7.27,0000 0000 0000 0000 000000
2013-08-27 01:53:12,0.08,0.12,0.00,22.95,28.15,30.87,6.07,29.63,1009.80,2047.98,3461.99,3315.06,3598.14,350.51,322.03,7.28,0000 0000 0000 0000 000000
2013-08-27 01:54:13,0.03,0.12,0.00,22.92,28.15,30.82,5.98,29.67,1009.78,2047.99,3461.81,3314.96,3598.05,349.22,320.90,7.28,0000 0000 0000 0000 000000
2013-08-27 01:55:13,0.14,0.12,0.00,22.91,28.15,30.87,5.97,29.50,1009.79,2047.99,3460.15,3313.96,3597.01,350.85,322.67,7.29,0000 0000 0000 0000 000000
2013-08-27 01:56:13,0.55,0.13,0.00,22.92,28.15,30.83,5.98,29.63,1009.80,2047.99,3457.89,3312.44,3595.38,349.88,321.77,7.30,0000 0000 0000 0000 000000
2013-08-27 01:57:14,0.92,0.13,0.00,22.93,28.15,30.85,6.01,29.63,1009.79,2047.98,3454.58,3309.97,3592.84,349.72,321.30,7.30,0000 0000 0000 0000 000000
2013-08-27 01:58:14,1.21,0.14,0.00,22.90,28.15,30.86,5.89,29.79,1009.79,2047.98,3451.63,3307.78,3590.55,349.02,321.00,7.31,0000 0000 0000 0000 000000
2013-08-27 01:59:14,1.06,0.15,0.00,22.90,28.15,30.83,6.00,29.63,1009.79,2047.98,3450.42,3306.72,3589.56,349.94,321.85,7.31,0000 0000 0000 0000 000000
2013-08-27 02:00:14,0.47,0.15,0.00,22.90,28.15,30.82,5.86,29.71,1009.78,2047.99,3450.07,3306.34,3589.20,349.12,321.09,7.32,0000 0000 0000 0000 000000
2013-08-27 02:01:15,0.16,0.15,0.00,22.92,28.15,30.82,6.04,29.58,1009.78,2047.98,3449.83,3306.16,3589.07,351.02,322.63,7.33,0000 0000 0000 0000 000000
2013-08-27 02:02:15,0.07,0.15,0.00,22.91,28.15,30.83,5.97,29.71,1009.81,2047.99,3449.54,3306.07,3589.02,350.27,322.32,7.33,0000 0000 0000 0000 000000
2013-08-27 02:03:15,0.06,0.15,0.00,22.91,28.15,30.83,5.88,29.54,1009.81,2047.98,3449.26,3306.04,3589.00,350.17,321.93,7.34,0000 0000 0000 0000 000000
2013-08-27 02:04:15,0.04,0.15,0.00,22.89,28.15,30.84,5.88,29.42,1009.82,2047.97,3449.11,3306.02,3589.00,349.58,321.54,7.34,0000 0000 0000 0000 000000
2013-08-27 02:05:15,0.02,0.15,0.00,22.88,28.15,30.84,6.04,29.50,1009.81,2047.97,3449.05,3306.00,3588.99,351.25,323.08,7.35,0000 0000 0000 0000 000000
2013-08-27 02:06:16,0.00,0.15,0.00,22.92,28.15,30.82,6.00,29.58,1009.82,2047.96,3449.01,3306.00,3588.96,350.04,321.69,7.35,0000 0000 0000 0000 000000
2013-08-27 02:07:16,0.00,0.15,0.00,22.92,28.15,30.81,6.00,29.54,1009.81,2047.97,3449.00,3306.00,3588.94,349.57,321.74,7.36,0000 0000 0000 0000 000000
2013-08-27 02:08:16,0.00,0.15,0.00,22.91,28.15,30.88,5.88,29.25,1009.78,2047.98,3449.00,3306.00,3588.95,349.06,321.50,7.37,0000 0000 0000 0000 000000
2013-08-27 02:09:16,0.00,0.15,0.00,22.91,28.15,30.89,5.97,29.42,1009.80,2047.98,3449.00,3306.00,3588.91,349.62,321.30,7.37,0000 0000 0000 0000 000000
2013-08-27 02:10:17,0.00,0.15,0.00,22.90,28.15,30.85,6.02,29.88,1009.79,2047.99,3449.00,3306.00,3588.90,350.16,322.04,7.38,0000 0000 0000 0000 000000
2013-08-27 02:11:17,0.01,0.15,0.00,22.90,28.15,30.85,5.81,29.46,1009.80,2047.99,3449.00,3306.00,3588.80,349.66,321.65,7.38,0000 0000 0000 0000 000000
2013-08-27 02:12:17,0.01,0.15,0.00,22.90,28.15,30.83,6.13,29.42,1009.80,2047.98,3449.00,3306.00,3588.72,350.72,321.58,7.39,0000 0000 0000 0000 000000
2013-08-27 02:13:18,0.00,0.15,0.00,22.88,28.15,30.84,5.93,29.79,1009.80,2047.96,3449.00,3306.00,3588.51,348.97,320.93,7.40,0000 0000 0000 0000 000000
2013-08-27 02:14:18,0.01,0.15,0.00,22.88,28.15,30.86,5.96,29.79,1009.80,2047.98,3449.00,3305.99,3588.33,349.77,321.72,7.40,0000 0000 0000 0000 000000
2013-08-27 02:15:18,0.03,0.15,0.00,22.88,28.15,30.83,6.09,29.54,1009.82,2047.97,3449.00,3305.99,3588.16,351.31,323.13,7.41,0000 0000 0000 0000 000000
2013-08-27 02:16:19,0.01,0.15,0.00,22.88,28.15,30.82,5.98,29.75,1009.79,2047.96,3448.98,3305.98,3588.10,349.60,321.55,7.41,0000 0000 0000 0000 000000
2013-08-27 02:17:19,0.00,0.15,0.00,22.89,28.15,30.87,5.97,29.38,1009.81,2047.97,3448.98,3305.98,3588.15,350.37,322.22,7.42,0000 0000 0000 0000 000000
2013-08-27 02:18:19,0.01,0.15,0.00,22.89,28.15,30.82,5.94,29.79,1009.80,2047.99,3448.97,3305.99,3588.15,349.02,321.27,7.43,0000 0000 0000 0000 000000
2013-08-27 02:19:20,0.01,0.15,0.00,22.87,28.15,30.76,6.12,29.58,1009.78,2047.96,3448.94,3305.97,3588.10,350.71,322.61,7.43,0000 0000 0000 0000 000000
2013-08-27 02:20:20,0.00,0.15,0.00,22.88,28.15,30.76,6.07,29.50,1009.79,2047.98,3448.94,3305.97,3588.07,350.03,321.95,7.44,0000 0000 0000 0000 000000
2013-08-27 02:21:20,0.00,0.15,0.00,22.89,28.15,30.76,5.89,29.42,1009.82,2047.97,3448.93,3305.98,3588.06,349.66,321.61,7.44,0000 0000 0000 0000 000000
2013-08-27 02:22:20,0.00,0.15,0.00,22.91,28.15,30.79,5.91,29.92,1009.80,2047.98,3448.91,3305.96,3588.06,350.37,321.90,7.45,0000 0000 0000 0000 000000
2013-08-27 02:23:21,0.01,0.15,0.00,22.93,28.15,30.83,5.93,29.67,1009.81,2047.99,3448.85,3305.95,3588.04,349.35,321.43,7.45,0000 0000 0000 0000 000000
2013-08-27 02:24:21,0.02,0.15,0.00,22.95,28.15,30.85,5.80,29.42,1009.81,2047.97,3448.65,3305.96,3588.02,349.70,321.58,7.46,0000 0000 0000 0000 000000
2013-08-27 02:25:21,0.01,0.15,0.00,22.93,28.15,30.80,5.93,29.46,1009.83,2047.95,3448.46,3305.93,3588.01,349.97,321.89,7.47,0000 0000 0000 0000 000000
2013-08-27 02:26:21,0.01,0.15,0.00,22.93,28.15,30.75,6.10,29.67,1009.84,2047.95,3448.32,3305.91,3588.00,349.55,321.65,7.47,0000 0000 0000 0000 000000
2013-08-27 02:27:22,0.02,0.15,0.00,22.93,28.15,30.82,6.06,29.63,1009.98,2047.98,3448.36,3305.94,3588.01,351.21,323.04,7.48,0000 0000 0000 0000 000000
2013-08-27 02:28:22,0.01,0.15,0.00,22.93,28.15,30.79,5.94,29.50,1009.92,2047.97,3448.29,3305.91,3588.00,349.35,321.09,7.48,0000 0000 0000 0000 000000
2013-08-27 02:29:22,0.01,0.15,0.00,22.92,28.15,30.80,6.03,29.92,1009.88,2047.98,3448.27,3305.91,3588.00,349.08,321.11,7.49,0000 0000 0000 0000 000000
2013-08-27 02:30:22,0.01,0.15,0.00,22.92,28.15,30.80,5.98,29.83,1009.94,2047.99,3448.24,3305.91,3588.00,349.42,321.88,7.50,0000 0000 0000 0000 000000
2013-08-27 02:31:22,0.00,0.15,0.00,22.92,28.15,30.78,5.92,29.71,1009.99,2047.98,3448.16,3305.88,3588.00,349.58,321.53,7.50,0000 0000 0000 0000 000000
2013-08-27 02:32:23,0.02,0.15,0.00,22.92,28.15,30.78,6.05,29.88,1009.95,2047.96,3448.07,3305.60,3588.00,349.70,321.69,7.51,0000 0000 0000 0000 000000
2013-08-27 02:33:23,0.06,0.15,0.00,22.91,28.15,30.80,5.98,29.58,1009.87,2047.95,3448.03,3305.42,3588.00,350.25,322.14,7.51,0000 0000 0000 0000 000000
2013-08-27 02:34:23,0.04,0.15,0.00,22.92,28.15,30.83,6.03,29.75,1009.85,2047.97,3448.01,3305.45,3588.00,349.79,321.83,7.52,0000 0000 0000 0000 000000
2013-08-27 02:35:24,-0.01,0.15,0.00,22.93,28.15,30.82,5.92,30.04,1009.86,2047.98,3448.01,3305.61,3588.00,349.59,321.51,7.52,0000 0000 0000 0000 000000
2013-08-27 02:36:24,-0.01,0.15,0.00,22.94,28.15,30.80,5.94,29.58,1009.89,2047.98,3448.01,3305.56,3588.00,349.66,321.58,7.53,0000 0000 0000 0000 000000
2013-08-27 02:37:24,0.01,0.15,0.00,22.92,28.15,30.86,5.83,29.50,1009.87,2047.99,3448.00,3305.56,3588.00,349.05,321.03,7.54,0000 0000 0000 0000 000000